FW3830 Weather Reports


Display with metric or nautical units.
time (UTC)temp
F
wind
direction
speed
MPH
gust
MPH
rain 1hr
in
rain 24hr
in
rain mn
in
humidity
%
barometer
mb
20260504140543 44 293 1.0 3.0 0.00 0.00 0.00 86 1013.6
20260504130602 43 338 1.0 2.0 0.00 0.00 0.00 87 1014.1
20260504110541 43 315 2.0 3.0 0.00 0.00 0.00 86 1014.4
20260504100542 44 293 3.0 4.0 0.00 0.00 0.00 85 1014.3
20260504081542 44 293 2.0 2.0 0.00 0.00 0.00 85 1014.2
20260504080541 44 293 2.0 3.0 0.00 0.00 0.00 84 1014.0
20260504050543 50 270 2.0 3.0 0.00 0.00 0.00 79 1012.8
20260504045541 50 270 1.0 2.0 0.00 0.00 0.00 78 1012.8
20260504044542 50 270 2.0 3.0 0.00 0.00 0.00 78 1012.7
20260504043542 51 270 2.0 3.0 0.00 0.00 0.00 75 1012.7
20260504042542 51 0.0 2.0 0.00 0.00 0.00 74 1012.7
20260504041541 52 270 1.0 2.0 0.00 0.00 0.00 73 1012.6
20260504040541 52 270 1.0 3.0 0.00 0.00 0.00 71 1012.3
20260504035622 53 0.0 2.0 0.00 0.00 0.00 69 1012.2
20260504034603 53 0.0 1.0 0.00 0.00 0.00 70 1012.3
20260504033541 54 270 1.0 3.0 0.00 0.00 0.00 70 1012.1
20260504032541 55 270 2.0 4.0 0.00 0.00 0.00 66 1012.0
20260504031541 56 0.0 2.0 0.00 0.00 0.00 65 1012.2
20260504030602 57 270 1.0 3.0 0.00 0.00 0.00 65 1011.8
20260504025541 58 270 1.0 2.0 0.00 0.00 0.00 64 1011.8
20260504024601 59 270 1.0 2.0 0.00 0.00 0.00 63 1012.0
20260504023542 60 270 2.0 3.0 0.00 0.00 0.00 63 1012.1
20260504022541 60 270 2.0 3.0 0.00 0.00 0.00 62 1012.1
20260504021541 61 270 2.0 3.0 0.00 0.00 0.00 63 1012.2
20260504020601 62 270 2.0 3.0 0.00 0.00 0.00 60 1012.1
20260504015542 62 270 2.0 3.0 0.00 0.00 0.00 59 1012.1
20260504014542 63 270 2.0 3.0 0.00 0.00 0.00 56 1012.1
20260504013541 65 270 2.0 3.0 0.00 0.00 0.00 52 1012.1
20260504012541 67 0.0 2.0 0.00 0.00 0.00 50 1012.5
20260504011542 69 0.0 1.0 0.00 0.00 0.00 45 1012.8
20260504010541 70 0.0 2.0 0.00 0.00 0.00 43 1012.9
20260504005542 71 293 2.0 4.0 0.00 0.00 0.00 40 1012.9
20260504004542 72 270 2.0 4.0 0.00 0.00 0.00 37 1013.1
20260504003601 72 270 3.0 7.0 0.00 0.00 0.00 37 1013.2
20260504002541 73 270 2.0 6.0 0.00 0.00 0.00 34 1013.2
20260504001542 73 270 2.0 7.0 0.00 0.00 0.00 35 1013.4
20260504000541 74 338 4.0 8.0 0.00 0.00 0.00 33 1013.6
20260503235541 75 315 4.0 9.0 0.00 0.00 0.00 31 1013.6
20260503234603 75 338 4.0 8.0 0.00 0.00 0.00 30 1013.5
20260503233541 75 338 3.0 7.0 0.00 0.00 0.00 31 1013.7
20260503232541 75 270 4.0 8.0 0.00 0.00 0.00 32 1013.6
20260503231601 75 315 3.0 9.0 0.00 0.00 0.00 32 1013.7
20260503230602 76 315 4.0 11.0 0.00 0.00 0.00 30 1013.9
20260503225541 75 293 4.0 10.0 0.00 0.00 0.00 30 1014.0
20260503224541 75 0 4.0 10.0 0.00 0.00 0.00 30 1014.1
20260503223601 75 315 4.0 11.0 0.00 0.00 0.00 32 1014.3
20260503222541 75 315 5.0 10.0 0.00 0.00 0.00 30 1014.5
20260503221541 75 270 4.0 10.0 0.00 0.00 0.00 29 1014.4
20260503220541 75 270 4.0 9.0 0.00 0.00 0.00 31 1014.6
20260503215601 75 338 5.0 11.0 0.00 0.00 0.00 30 1014.8
20260503214541 75 293 4.0 9.0 0.00 0.00 0.00 31 1014.9
20260503213540 74 338 4.0 8.0 0.00 0.00 0.00 31 1015.2
20260503212542 74 270 4.0 9.0 0.00 0.00 0.00 30 1015.4
20260503211541 74 0 4.0 9.0 0.00 0.00 0.00 31 1015.5
20260503210540 73 0 5.0 11.0 0.00 0.00 0.00 31 1015.6
20260503205540 73 225 5.0 11.0 0.00 0.00 0.00 30 1015.8
20260503204541 73 338 6.0 11.0 0.00 0.00 0.00 31 1015.8
20260503203541 73 0 5.0 10.0 0.00 0.00 0.00 31 1016.2
20260503202541 73 315 4.0 9.0 0.00 0.00 0.00 33 1016.1
20260503201541 72 315 4.0 10.0 0.00 0.00 0.00 37 1016.0
20260503200601 72 270 5.0 10.0 0.00 0.00 0.00 33 1016.3
20260503195540 72 0 3.0 8.0 0.00 0.00 0.00 36 1016.3
20260503194540 71 293 4.0 11.0 0.00 0.00 0.00 38 1016.4
20260503193540 70 293 4.0 8.0 0.00 0.00 0.00 41 1016.5
20260503192541 69 270 4.0 9.0 0.00 0.00 0.00 41 1016.6
20260503191541 68 293 4.0 10.0 0.00 0.00 0.00 42 1016.7
20260503190540 67 293 4.0 10.0 0.00 0.00 0.00 43 1016.9
20260503185601 66 270 5.0 10.0 0.00 0.00 0.00 42 1016.9
20260503184541 66 270 4.0 10.0 0.00 0.00 0.00 43 1017.0
20260503183540 65 270 4.0 12.0 0.00 0.00 0.00 44 1017.2
20260503182541 65 270 5.0 12.0 0.00 0.00 0.00 43 1017.3
20260503181542 63 270 5.0 11.0 0.00 0.00 0.00 46 1017.2
20260503180543 62 270 6.0 12.0 0.00 0.00 0.00 47 1017.3
20260503175542 62 270 5.0 11.0 0.00 0.00 0.00 47 1017.2
20260503174542 61 270 4.0 9.0 0.00 0.00 0.00 52 1017.2
20260503173542 60 270 6.0 13.0 0.00 0.00 0.00 51 1017.1
20260503172543 59 270 6.0 10.0 0.00 0.00 0.00 53 1017.2
20260503171542 58 270 6.0 14.0 0.00 0.00 0.00 54 1017.3
20260503170542 57 270 4.0 11.0 0.00 0.00 0.00 56 1017.2
20260503150602 45 293 2.0 8.0 0.00 0.00 0.00 85 1018.4